Temperature
10 12 12 11 11 11 12 12 12 13 14 16 17 17 17 17 17 17 17 17 17 16 16 16 16 16 16 16 16 16 15 15 15 15 14 14 13 13 12 12 11 11 11 10
9 11 11 11 11 11 12 12 12 13 14 16 17 17 17 17 17 17 17 17 16 16 16 16 16 16 16 16 16 16 15 15 15 14 14 13 13 13 12 12 11 11 10 10
8 10 10 10 11 11 12 12 13 13 14 15 15 16 16 17 17 17 17 16 16 16 16 16 16 16 16 16 16 16 15 15 14 14 13 13 12 12 12 11 11 10 10 9
7 8 8 10 13 13 12 13 13 14 14 14 15 16 17 17 17 16 16 16 16 16 15 15 15 15 16 15 15 15 15 15 14 14 13 13 12 12 11 11 10 10 9 9
6 7 8 11 12 12 12 12 13 13 14 14 15 15 15 16 16 16 16 16 15 15 15 15 15 15 15 15 15 14 14 14 14 13 13 12 12 11 11 10 10 9 9 8
6 6 7 11 12 13 12 11 12 13 13 13 13 12 13 15 15 15 15 15 15 15 15 14 15 14 14 14 14 14 14 14 13 13 12 12 11 11 10 10 9 8 8 7
6 6 8 11 12 12 10 11 12 13 13 13 12 12 13 14 14 14 14 14 14 14 14 14 14 14 14 14 13 13 13 13 12 12 12 11 10 10 9 9 8 8 7 7
6 6 7 10 10 10 11 12 12 12 12 12 12 13 13 13 13 13 13 14 14 14 13 13 13 13 13 13 13 12 12 12 12 11 11 10 10 9 9 8 7 7 6 6
7 8 9 11 11 11 11 11 11 11 11 11 11 12 12 12 12 12 12 12 13 13 13 12 12 12 12 12 12 12 11 11 11 10 10 9 9 9 8 7 6 6 5 5
8 8 9 11 11 11 11 11 11 10 10 10 10 10 11 11 11 11 11 11 11 12 12 12 12 11 11 11 11 11 10 10 10 10 9 9 8 8 7 7 6 5 5 4
7 8 9 10 10 10 10 10 10 10 10 10 10 10 10 10 10 10 10 10 10 10 10 11 11 10 10 10 10 10 9 9 9 9 8 8 7 7 6 6 5 5 4 4
7 9 8 9 10 10 9 9 9 9 9 9 9 9 9 9 9 9 9 10 10 9 10 10 10 10 10 9 9 9 9 9 8 8 7 7 6 5 5 4 4 4 3 3
8 9 9 9 9 8 8 8 8 8 8 8 8 8 8 8 8 8 8 8 9 9 9 9 9 9 9 9 8 8 8 8 7 7 6 6 5 4 4 3 3 2 2 2
7 7 7 7 7 7 7 7 7 7 7 7 7 7 7 7 7 7 7 7 7 7 7 7 8 8 8 8 7 7 7 6 6 6 5 5 4 4 3 3 2 2 1 1
6 6 6 6 6 6 6 6 6 6 6 6 6 6 6 6 6 6 6 6 6 6 6 6 7 7 6 6 6 6 6 5 5 4 4 4 3 3 2 2 1 1 0 -0
5 5 5 5 5 5 5 5 5 5 5 5 5 5 5 5 5 5 5 5 5 5 5 5 6 6 5 5 5 5 4 4 3 3 3 2 2 2 1 1 0 0 -0 -1
4 4 4 3 3 3 3 3 3 3 3 3 4 4 4 4 4 4 4 4 4 4 4 4 4 4 4 4 4 4 3 3 2 2 2 2 2 1 1 0 -0 -1 -1 -2
2 2 2 2 2 2 2 2 2 2 2 2 2 2 2 3 3 3 3 3 3 3 3 3 3 3 3 3 3 2 2 2 1 1 1 1 1 0 -0 -0 -1 -1 -2 -2
1 1 2 2 1 1 1 1 1 1 1 1 1 1 2 2 2 1 1 1 1 2 2 2 2 2 2 2 2 1 1 1 1 0 0 0 -0 -1 -1 -2 -2 -2 -3 -3
0 0 0 0 0 0 0 0 0 1 1 0 0 1 1 0 0 0 0 0 0 1 1 1 1 1 1 1 1 1 0 0 -0 -0 -1 -1 -1 -2 -2 -2 -3 -3 -3 -4
-1 -1 -1 -1 -1 -1 -1 -0 -1 -0 -0 -1 -0 -0 -0 -1 -1 -1 -1 -1 -0 -0 -0 0 0 0 0 0 -0 -0 -1 -1 -1 -1 -2 -2 -2 -2 -3 -3 -3 -4 -4 -5
-3 -2 -2 -2 -2 -2 -2 -1 -2 -2 -1 -2 -1 -1 -1 -1 -2 -1 -1 -1 -1 -1 -1 -1 -1 -1 -1 -1 -1 -1 -2 -2 -2 -2 -2 -3 -3 -3 -3 -4 -4 -4 -5 -5
-4 -4 -4 -3 -3 -3 -2 -2 -2 -2 -2 -2 -2 -2 -2 -2 -2 -2 -2 -2 -2 -2 -2 -2 -2 -2 -2 -2 -2 -2 -2 -2 -3 -3 -3 -3 -3 -4 -4 -4 -5 -5 -5 -6
-5 -5 -5 -4 -4 -4 -3 -3 -3 -3 -3 -3 -3 -3 -3 -3 -3 -3 -3 -3 -3 -3 -3 -3 -3 -3 -3 -3 -3 -3 -3 -3 -3 -3 -3 -4 -4 -4 -5 -5 -5 -6 -6 -6
-6 -6 -5 -5 -5 -5 -5 -5 -4 -4 -4 -4 -4 -4 -4 -4 -3 -3 -3 -3 -3 -3 -4 -4 -3 -3 -3 -4 -4 -4 -4 -4 -4 -4 -4 -5 -5 -5 -5 -6 -6 -6 -7 -7
-6 -6 -6 -6 -6 -6 -6 -5 -5 -5 -5 -5 -5 -5 -5 -5 -4 -4 -4 -4 -4 -4 -4 -4 -4 -4 -4 -4 -5 -5 -5 -5 -5 -5 -5 -5 -6 -6 -6 -6 -7 -7 -7 -7
-7 -7 -7 -7 -7 -6 -6 -6 -6 -6 -6 -6 -6 -6 -5 -5 -5 -5 -5 -5 -5 -5 -5 -5 -5 -5 -5 -5 -5 -5 -5 -5 -5 -6 -6 -6 -6 -7 -7 -7 -7 -7 -7 -8
Wind_Speed
14 12 10 12 14 15 18 18 16 16 19 16 11 8 7 6 5 5 5 6 6 6 6 6 7 7 7 8 9 10 11 11 11 10 9 9 8 8 7 7 7 7 6 6
14 14 13 14 15 17 20 20 21 20 22 15 12 10 8 7 6 6 7 7 7 7 7 7 7 8 8 8 9 10 11 10 9 9 10 9 9 8 8 7 7 7 7 7
11 11 10 14 17 17 17 19 19 23 22 12 13 13 11 8 8 8 7 7 7 8 8 8 8 8 9 9 8 10 10 10 10 10 10 9 9 9 8 8 7 7 7 7
6 7 13 11 9 14 18 19 18 17 15 13 13 11 10 9 8 8 7 7 7 7 7 7 6 6 6 7 8 9 9 9 9 9 9 9 9 9 8 7 7 7 6 6
5 9 11 9 9 11 14 16 14 17 16 13 11 10 11 9 8 8 8 6 6 6 6 6 6 6 6 7 7 8 9 9 9 10 10 9 9 9 7 6 6 6 6 6
6 7 9 8 5 6 7 12 10 12 13 11 7 9 11 7 7 7 5 3 3 3 3 4 5 6 7 7 8 9 9 9 9 9 10 10 9 8 6 6 6 6 5 5
12 10 9 7 4 2 7 7 2 5 7 6 7 10 8 5 4 5 5 4 3 3 4 4 5 7 7 7 9 8 7 7 8 8 8 8 7 6 7 6 6 5 5 4
9 10 11 5 2 5 5 3 4 4 4 5 7 8 7 6 5 4 4 4 3 3 4 3 5 7 8 8 7 6 7 7 7 7 7 7 8 7 7 7 6 5 4 3
9 10 7 5 6 6 5 6 6 6 7 7 7 7 6 6 5 5 4 4 3 3 4 3 5 7 7 6 6 7 7 7 7 7 7 7 8 8 7 6 5 5 4 4
9 11 10 10 9 8 7 8 8 7 6 7 8 7 7 6 5 5 4 4 3 3 4 4 4 5 5 6 7 8 8 7 7 7 7 6 6 6 6 6 6 5 5 5
13 13 11 11 10 9 9 8 8 7 7 6 7 8 8 7 7 5 4 3 3 4 4 4 4 4 5 6 7 7 8 7 7 7 7 6 5 4 5 4 6 7 6 5
12 9 8 9 8 8 10 10 9 9 9 7 7 8 8 7 6 5 4 2 3 3 3 3 4 4 5 6 7 8 7 7 6 6 6 6 6 4 4 4 5 5 5 5
13 11 10 9 8 7 9 9 8 8 7 7 6 6 7 6 5 4 3 3 4 4 4 4 4 4 5 5 6 7 7 6 5 6 6 6 6 6 4 3 4 4 5 5
10 9 11 10 9 9 9 9 7 6 6 6 6 6 5 5 4 4 4 4 3 3 3 4 4 4 4 5 6 6 6 7 6 6 6 6 6 5 5 5 4 2 3 4
9 9 10 9 9 8 8 6 7 7 6 6 5 5 5 5 5 5 3 2 2 2 3 3 4 3 4 5 6 7 6 5 5 5 5 5 5 5 5 5 4 3 3 3
10 10 10 9 8 7 6 6 7 8 7 6 5 5 5 4 4 4 3 2 2 3 3 4 4 3 4 6 6 6 5 7 6 5 5 5 5 5 5 5 4 4 4 4
9 10 9 8 8 8 7 7 7 7 6 6 5 5 4 3 3 3 2 1 2 2 3 3 3 3 4 5 6 6 5 6 7 5 5 5 5 5 5 5 5 4 4 4
8 8 7 7 7 7 7 6 6 6 5 5 4 4 4 4 4 3 2 1 2 1 1 2 4 4 5 5 5 5 5 5 5 5 5 4 4 5 4 4 5 4 4 4
6 6 6 6 6 5 5 5 5 4 4 4 4 4 4 3 2 2 2 2 2 2 1 3 6 6 5 6 6 5 6 6 5 4 4 6 5 4 4 4 4 4 4 3
5 5 5 5 4 4 4 4 4 4 3 3 3 3 2 2 1 1 1 1 1 2 2 4 5 5 5 6 6 5 6 6 6 5 5 5 5 4 4 4 4 3 3 3
6 5 5 4 4 4 3 3 3 3 3 2 2 2 2 1 1 1 2 0 1 1 3 5 4 4 4 5 6 5 5 5 5 5 5 5 5 4 4 4 3 3 3 2
5 5 4 3 3 4 3 2 2 2 2 2 1 1 0 0 0 1 1 1 1 2 2 3 3 5 6 6 5 5 5 5 5 4 4 4 4 4 4 4 3 3 2 2
5 5 4 4 3 3 4 3 2 1 1 1 1 1 1 0 0 1 0 0 1 3 3 3 4 7 7 5 5 5 5 5 4 4 4 4 4 4 4 3 3 2 2 2
5 5 4 4 4 3 3 3 2 2 2 2 1 1 0 1 1 1 1 2 3 3 3 5 6 7 7 4 4 4 4 4 4 4 4 3 3 3 3 3 2 2 2 2
4 4 4 4 3 3 2 3 3 3 3 2 3 3 2 1 1 2 2 3 4 5 4 5 7 7 5 4 4 4 4 3 4 4 4 3 3 3 2 2 2 2 2 2
4 3 3 3 2 2 2 2 2 2 2 2 3 3 3 3 3 3 3 4 5 6 5 4 4 5 4 4 4 4 4 4 3 3 3 3 3 2 2 2 2 2 2 2
4 3 3 3 3 3 2 2 2 2 1 1 2 2 3 3 3 4 4 4 4 4 4 4 4 4 4 4 4 3 3 3 3 2 2 2 2 2 2 2 1 1 2 2
Wind_Direction
256 262 252 244 243 234 231 234 239 244 249 255 260 257 251 239 235 231 223 217 213 211 212 210 207 201 195 191 182 177 177 183 186 181 178 177 179 176 171 170 174 176 179 185
257 258 256 255 246 240 239 239 244 253 257 258 269 275 272 259 242 240 233 223 220 218 215 213 210 204 196 191 181 173 177 183 179 174 174 176 177 172 170 173 175 176 184 187
252 254 261 250 236 236 238 237 237 246 253 262 266 266 265 262 253 245 242 237 229 224 220 217 213 205 198 189 177 173 177 178 176 174 173 174 172 170 174 179 177 180 185 185
263 249 243 243 223 228 239 244 238 244 252 251 254 260 257 251 247 245 239 235 230 226 224 219 209 201 187 175 171 175 177 176 173 170 171 168 170 175 178 177 178 182 184 183
239 249 260 260 236 227 233 246 241 246 254 257 259 269 264 261 264 257 245 234 226 222 220 211 199 185 170 170 169 173 177 177 174 171 170 171 177 180 178 174 178 180 179 178
224 240 244 249 236 223 226 254 248 242 251 258 250 251 259 267 271 268 267 245 223 219 214 205 191 166 166 175 175 183 183 178 171 169 171 176 178 175 169 168 172 170 175 177
232 242 260 266 264 189 212 246 270 237 246 251 243 246 269 280 276 273 268 255 230 216 207 203 177 162 172 179 189 188 171 161 161 164 167 168 164 161 157 156 156 161 166 168
219 234 249 249 224 212 243 294 322 324 306 281 269 268 273 275 272 276 274 258 234 221 219 204 174 170 181 193 186 160 154 156 159 159 158 159 156 155 152 153 156 159 158 155
216 230 250 238 237 257 284 296 301 307 309 304 290 285 286 281 276 272 263 259 241 223 218 209 182 177 189 188 159 152 153 159 158 153 154 157 158 157 154 155 161 165 165 172
248 249 252 259 261 263 261 269 282 287 297 310 300 296 293 286 282 279 275 255 238 227 212 207 189 183 182 164 155 156 161 161 156 154 154 152 152 157 162 168 169 170 175 180
254 262 274 264 258 264 275 276 279 280 275 276 283 287 286 282 279 276 270 256 235 224 215 210 183 172 158 155 154 159 161 158 156 156 154 147 143 153 163 176 176 176 181 177
252 256 256 265 269 271 274 275 278 282 280 275 269 275 281 279 277 270 258 249 240 226 210 206 185 175 160 155 157 160 161 160 159 156 151 146 139 110 89 136 146 157 171 174
265 278 277 283 291 288 282 284 281 278 277 280 283 278 276 276 275 269 262 248 240 229 211 199 186 175 163 156 156 160 163 161 158 157 155 154 152 148 136 102 112 144 163 174
273 280 279 281 286 288 283 284 284 282 280 273 275 276 275 273 271 266 260 253 243 214 199 185 176 176 158 148 149 152 152 157 159 160 158 157 156 155 155 154 152 149 163 173
274 276 276 282 285 288 289 287 286 281 278 277 277 273 271 269 266 268 271 252 211 196 192 176 174 171 147 146 148 149 149 153 149 148 148 150 149 148 150 151 154 155 146 158
276 275 272 270 273 279 285 280 275 276 274 270 269 272 274 270 270 273 268 224 202 208 196 177 177 167 147 145 142 140 142 142 144 148 148 150 151 152 154 156 160 166 174 175
269 268 268 272 274 274 272 271 270 271 270 269 271 273 270 264 264 265 265 231 191 193 185 171 163 147 143 145 144 144 141 146 145 144 153 158 157 159 161 164 169 176 184 194
266 270 270 270 273 275 276 275 275 277 276 277 277 268 257 250 245 243 241 170 114 103 142 153 144 136 136 136 136 140 143 148 152 154 153 154 154 156 159 163 168 171 172 190
285 283 284 283 279 275 278 281 283 286 284 276 273 267 263 258 238 221 189 163 166 190 207 142 138 133 134 137 133 138 142 144 144 145 148 153 147 147 152 157 162 166 169 174
309 309 306 302 299 291 288 290 291 292 290 283 278 280 277 271 236 178 144 190 248 218 162 147 141 139 137 138 131 139 145 148 148 148 148 150 150 151 151 153 155 160 165 172
320 316 317 317 320 315 300 293 287 283 289 283 268 261 259 276 251 170 142 213 303 119 137 138 135 136 134 140 134 140 145 147 149 151 152 152 150 149 149 151 156 163 168 171
324 322 322 324 329 330 328 325 307 296 301 308 304 267 201 230 66 57 48 217 191 122 110 125 132 137 140 133 134 138 140 142 143 145 146 148 150 151 154 156 160 167 171 174
330 332 332 333 334 335 342 352 347 321 306 307 296 279 246 240 177 146 204 284 137 125 115 127 136 134 127 121 127 132 136 138 140 143 145 148 150 153 157 159 165 170 175 185
339 341 338 336 342 350 351 356 10 10 3 354 350 351 63 67 36 42 103 133 130 118 116 128 128 125 115 113 123 128 132 134 135 138 139 140 143 149 155 162 171 180 187 198
340 340 342 346 349 345 352 13 27 31 31 27 22 25 31 52 104 101 102 119 119 107 106 115 113 106 100 109 118 123 126 133 136 137 138 141 147 152 160 170 177 187 200 215
342 341 340 339 336 342 2 13 17 23 37 37 33 37 48 63 82 91 94 94 96 92 91 98 104 100 102 108 112 114 119 121 114 117 131 142 152 160 172 181 194 211 222 232
344 348 354 2 8 12 13 13 16 22 38 56 54 48 54 66 79 84 87 91 91 89 88 89 94 98 102 106 107 107 110 117 123 128 134 142 149 162 183 201 219 231 241 242
Height
1421 1417 1417 1420 1420 1420 1421 1420 1420 1410 1405 1399 1396 1395 1394 1394 1395 1395 1396 1397 1398 1398 1399 1401 1402 1403 1404 1406 1409 1411 1414 1416 1418 1421 1424 1427 1429 1431 1433 1435 1437 1439 1441 1442
1421 1415 1413 1413 1411 1412 1412 1411 1408 1404 1397 1392 1392 1392 1391 1391 1392 1392 1392 1393 1393 1394 1395 1396 1397 1398 1399 1401 1403 1406 1408 1410 1413 1416 1418 1420 1423 1425 1427 1429 1432 1433 1435 1436
1420 1412 1411 1411 1402 1402 1401 1398 1399 1398 1390 1389 1390 1388 1387 1387 1387 1387 1387 1388 1388 1389 1390 1391 1391 1392 1393 1395 1398 1400 1402 1405 1408 1410 1412 1414 1417 1419 1421 1423 1426 1427 1429 1430
1419 1416 1417 1397 1387 1388 1389 1386 1387 1385 1382 1383 1383 1382 1382 1383 1383 1382 1382 1383 1384 1384 1385 1386 1387 1388 1389 1390 1392 1394 1396 1399 1401 1404 1407 1409 1411 1413 1416 1418 1420 1421 1423 1425
1419 1413 1401 1387 1382 1382 1384 1381 1379 1378 1376 1376 1377 1377 1376 1377 1377 1377 1377 1378 1378 1379 1379 1380 1381 1382 1384 1385 1386 1388 1390 1393 1395 1398 1401 1403 1405 1408 1410 1412 1414 1416 1417 1419
1413 1410 1400 1381 1374 1373 1378 1378 1371 1371 1370 1371 1373 1377 1371 1371 1372 1372 1371 1372 1373 1373 1374 1375 1376 1377 1378 1379 1381 1382 1385 1387 1390 1393 1395 1397 1400 1402 1405 1407 1408 1410 1412 1413
1406 1403 1390 1375 1371 1371 1382 1375 1367 1366 1365 1366 1368 1368 1366 1367 1366 1366 1366 1367 1368 1368 1369 1369 1370 1371 1372 1373 1375 1377 1380 1382 1385 1388 1390 1392 1395 1397 1399 1401 1403 1405 1406 1407
1398 1398 1388 1371 1370 1372 1369 1366 1365 1363 1363 1363 1362 1362 1361 1361 1361 1361 1362 1362 1363 1363 1363 1364 1364 1365 1366 1367 1369 1372 1375 1377 1379 1382 1385 1387 1389 1391 1393 1396 1397 1399 1400 1401
1382 1378 1368 1366 1366 1364 1364 1364 1363 1362 1361 1361 1359 1358 1357 1357 1357 1357 1357 1357 1357 1358 1358 1358 1359 1360 1361 1362 1364 1367 1369 1372 1374 1377 1379 1382 1384 1385 1388 1390 1392 1393 1394 1395
1371 1365 1363 1362 1361 1361 1361 1361 1360 1359 1358 1357 1356 1354 1353 1353 1352 1352 1351 1352 1352 1352 1352 1352 1353 1355 1356 1358 1360 1362 1364 1366 1369 1371 1374 1376 1378 1381 1382 1384 1386 1387 1389 1390
1364 1360 1359 1357 1357 1357 1357 1357 1356 1355 1355 1354 1352 1350 1350 1349 1348 1347 1346 1346 1346 1346 1347 1347 1348 1349 1351 1353 1355 1357 1359 1361 1363 1366 1368 1370 1373 1375 1377 1379 1381 1382 1384 1385
1358 1356 1356 1353 1353 1353 1352 1351 1351 1351 1349 1348 1348 1346 1345 1344 1343 1342 1341 1341 1340 1340 1341 1342 1343 1344 1346 1348 1350 1352 1354 1356 1358 1360 1363 1365 1367 1370 1372 1375 1376 1378 1380 1381
1352 1351 1350 1348 1347 1348 1347 1346 1345 1345 1344 1342 1341 1341 1340 1338 1337 1337 1336 1335 1335 1335 1336 1337 1338 1339 1341 1343 1345 1347 1348 1350 1352 1354 1357 1359 1362 1364 1366 1369 1371 1373 1375 1376
1348 1347 1344 1343 1343 1343 1342 1340 1339 1338 1338 1338 1336 1335 1334 1333 1332 1331 1330 1330 1331 1331 1331 1332 1332 1333 1335 1337 1339 1341 1343 1345 1347 1349 1351 1354 1357 1359 1361 1363 1365 1367 1370 1371
1342 1342 1340 1339 1338 1337 1336 1334 1333 1332 1332 1331 1331 1330 1329 1328 1327 1326 1326 1326 1326 1326 1326 1326 1327 1329 1331 1332 1334 1336 1338 1340 1342 1345 1347 1349 1352 1354 1357 1359 1361 1362 1364 1366
1336 1335 1334 1332 1331 1330 1329 1328 1327 1326 1326 1325 1324 1324 1324 1323 1322 1322 1321 1321 1321 1320 1320 1321 1322 1324 1326 1328 1330 1331 1333 1336 1338 1340 1343 1345 1347 1349 1352 1354 1356 1358 1359 1361
1330 1328 1327 1326 1325 1324 1324 1323 1322 1321 1320 1319 1319 1319 1318 1318 1317 1317 1316 1316 1316 1316 1316 1317 1318 1320 1322 1324 1325 1327 1329 1332 1334 1337 1339 1341 1343 1345 1347 1350 1352 1353 1355 1357
1324 1323 1322 1321 1319 1319 1318 1317 1317 1316 1315 1314 1314 1314 1313 1312 1312 1311 1311 1312 1311 1311 1312 1313 1315 1316 1318 1320 1322 1324 1326 1328 1331 1333 1336 1338 1340 1342 1344 1346 1348 1350 1351 1353
1317 1317 1315 1315 1314 1314 1313 1313 1312 1311 1310 1310 1310 1309 1308 1307 1307 1307 1307 1307 1307 1307 1308 1310 1311 1313 1315 1317 1319 1321 1323 1326 1328 1330 1332 1334 1336 1338 1340 1342 1344 1346 1348 1349
1312 1311 1310 1309 1309 1308 1308 1307 1307 1306 1306 1306 1305 1304 1304 1304 1303 1303 1303 1304 1304 1304 1305 1307 1308 1310 1312 1314 1316 1318 1320 1323 1324 1327 1329 1331 1333 1335 1337 1339 1341 1343 1344 1345
1307 1306 1305 1305 1304 1303 1303 1303 1302 1302 1301 1301 1301 1301 1300 1300 1300 1301 1300 1300 1301 1302 1302 1304 1305 1307 1309 1311 1314 1316 1318 1320 1322 1324 1326 1328 1330 1332 1334 1336 1338 1339 1341 1342
1304 1303 1302 1301 1300 1299 1299 1299 1298 1298 1298 1298 1298 1298 1297 1297 1298 1298 1298 1299 1299 1299 1300 1301 1303 1305 1307 1309 1311 1313 1316 1318 1319 1321 1323 1325 1327 1328 1330 1332 1334 1336 1337 1338
1302 1301 1299 1298 1297 1296 1296 1296 1296 1295 1295 1295 1295 1295 1295 1295 1296 1296 1296 1297 1298 1298 1299 1300 1302 1304 1305 1307 1309 1311 1313 1315 1317 1319 1321 1323 1325 1326 1328 1329 1331 1332 1333 1334
1300 1299 1297 1296 1295 1294 1293 1293 1293 1293 1293 1293 1293 1294 1294 1293 1294 1295 1295 1296 1297 1297 1298 1299 1301 1302 1304 1306 1308 1310 1312 1313 1315 1317 1319 1321 1322 1324 1325 1326 1328 1329 1329 1330
1298 1297 1295 1294 1293 1292 1292 1292 1291 1292 1292 1292 1292 1292 1292 1292 1293 1293 1294 1295 1295 1296 1297 1299 1300 1302 1303 1305 1307 1308 1310 1312 1313 1315 1317 1318 1320 1321 1322 1324 1324 1325 1326 1326
1297 1296 1295 1294 1293 1292 1291 1291 1290 1290 1290 1290 1291 1291 1291 1291 1292 1292 1293 1294 1295 1295 1296 1298 1299 1301 1303 1304 1306 1307 1309 1310 1312 1313 1315 1316 1317 1318 1320 1320 1321 1322 1322 1322
1296 1295 1294 1293 1292 1291 1291 1290 1290 1290 1290 1290 1290 1290 1290 1290 1291 1292 1293 1293 1294 1295 1297 1298 1299 1301 1302 1304 1305 1307 1308 1309 1310 1312 1313 1314 1315 1316 1317 1317 1317 1318 1318 1318